Powrót do katalogu

FREGAT DEB

LostUNKNOWN
NORAD 45965·DEBRIS·🇷🇺 Russia

Wystrzelony Jul 18, 2011 z Baikonur Cosmodrome

Loading…

Następne Przeloty (najbliższe 24 godziny)

TLE

NieaktualneSource: Space-Track

Epoka: Jul 21, 2021, 12:31 UTC

1 45965U 11037FW  21202.52185793 -.00000005  00000-0  49372-3 0  9992
2 45965  50.9125 265.3193 0635023 335.6577  21.5439 12.11097117 43390

Śledź FREGAT DEB w czasie rzeczywistym z AllMySat

Download on the App Store